Location: Home
(42.5358°N, 72.7383°W)
Time: 21:01:20
(UTC-05:00)

Vanguard 1 Rocket - Pass Details

Date: 04 December 2021
Orbit: 651 x 4225 km, 34.3° (Epoch: 26 January)

Event Time Altitude Azimuth Distance (km) Brightness Sun altitude
Exits shadow 05:42:32 14° 266° (W) 4,790 10.5 -14.6°
Maximum altitude 05:57:15 62° 192° (SSW) 3,791 10.5 -12.1°
Drops below altitude 10° 06:22:16 10° 120° (ESE) 7,425 13.7 -7.8°
Sets 06:28:09 0° 118° (ESE) 8,387 15.0 -6.8°
